Location: BAF
(53.9483°N, 27.7497°E)
Time: 22:56:44
(UTC+02:00)

ISS - Pass Details

Date: 04 December 2020
Orbit: 418 x 419 km, 51.6° (Epoch: 16 January)

Event Time Altitude Azimuth Distance (km) Brightness Sun altitude
Rises 17:35:40 0° 276° (W) 2,369 1.4 -14.5°
Reaches altitude 10° 17:37:50 10° 269° (W) 1,503 0.3 -14.8°
Maximum altitude 17:41:01 40° 198° (SSW) 631 -2.6 -15.3°
Enters shadow 17:43:18 17° 133° (SE) 1,162 -1.8 -15.6°
